• In Uzbekistan
  • List of Countries
  • For 7 days
  • Water Temperature
  • Satellite Maps
  • Weather Map
  • Weather Widgets
  • user-avatar
    Login

    Hourly Weather Stepanakert

    Today, 19 June, Wednesday

    Time Temperature Precipitation Wind Pressure Humidity
    00:00 +19°C° 0.6 mm 2 mps 690 mmHg 74%
    01:00 +19°C° 0 mm 2 mps 690 mmHg 73%
    02:00 +19°C° 0 mm 2 mps 690 mmHg 72%
    03:00 +19°C° 0 mm 2 mps 689 mmHg 71%
    04:00 +19°C° 0 mm 2 mps 690 mmHg 71%
    05:00 +20°C° 0 mm 2 mps 690 mmHg 70%
    06:00 +21°C° 0 mm 2 mps 690 mmHg 70%
    07:00 +23°C° 0 mm 2 mps 690 mmHg 62%
    08:00 +25°C° 0 mm 2 mps 691 mmHg 54%
    09:00 +26°C° 0 mm 2 mps 691 mmHg 46%
    10:00 +27°C° 0 mm 2 mps 691 mmHg 45%
    11:00 +28°C° 0 mm 3 mps 691 mmHg 43%
    12:00 +28°C° 0 mm 3 mps 690 mmHg 42%
    13:00 +29°C° 0 mm 3 mps 690 mmHg 42%
    14:00 +29°C° 0 mm 3 mps 690 mmHg 42%
    15:00 +29°C° 0 mm 3 mps 690 mmHg 42%
    16:00 +29°C° 0 mm 3 mps 690 mmHg 46%
    17:00 +28°C° 0 mm 2 mps 690 mmHg 50%
    18:00 +28°C° 0 mm 1 mps 690 mmHg 54%
    19:00 +26°C° 0 mm 1 mps 690 mmHg 54%
    20:00 +24°C° 0 mm 2 mps 690 mmHg 55%
    21:00 +23°C° 0 mm 2 mps 690 mmHg 55%
    22:00 +21°C° 0 mm 2 mps 690 mmHg 55%
    23:00 +21°C° 0 mm 2 mps 690 mmHg 56%

    Tomorrow, 20 June, Thursday

    Time Temperature Precipitation Wind Pressure Humidity
    00:00 +20°C° 0 mm 2 mps 690 mmHg 56%
    01:00 +20°C° 0 mm 2 mps 690 mmHg 55%
    02:00 +20°C° 0 mm 2 mps 690 mmHg 54%
    03:00 +19°C° 0 mm 2 mps 690 mmHg 54%
    04:00 +20°C° 0 mm 2 mps 690 mmHg 55%
    05:00 +21°C° 0 mm 2 mps 690 mmHg 57%
    06:00 +22°C° 0 mm 1 mps 690 mmHg 58%
    07:00 +24°C° 0 mm 1 mps 690 mmHg 52%
    08:00 +26°C° 0 mm 2 mps 691 mmHg 45%
    09:00 +27°C° 0 mm 2 mps 691 mmHg 38%
    10:00 +28°C° 0 mm 2 mps 691 mmHg 38%
    11:00 +29°C° 0 mm 2 mps 690 mmHg 37%
    12:00 +29°C° 0 mm 3 mps 690 mmHg 36%
    13:00 +30°C° 0 mm 3 mps 690 mmHg 36%
    14:00 +30°C° 0 mm 3 mps 689 mmHg 37%
    15:00 +30°C° 0 mm 3 mps 689 mmHg 37%
    16:00 +29°C° 0 mm 3 mps 689 mmHg 41%
    17:00 +29°C° 0 mm 2 mps 689 mmHg 45%
    18:00 +28°C° 0 mm 2 mps 688 mmHg 49%
    19:00 +26°C° 0 mm 2 mps 689 mmHg 50%
    20:00 +24°C° 0 mm 2 mps 689 mmHg 51%
    21:00 +21°C° 0 mm 2 mps 689 mmHg 52%
    22:00 +21°C° 0 mm 2 mps 689 mmHg 51%
    23:00 +21°C° 0 mm 2 mps 689 mmHg 50%

    Day after tomorrow, 21 June, Friday

    Time Temperature Precipitation Wind Pressure Humidity
    00:00 +20°C° 0 mm 2 mps 689 mmHg 49%
    01:00 +20°C° 0 mm 2 mps 689 mmHg 50%
    02:00 +20°C° 0 mm 2 mps 689 mmHg 50%
    03:00 +19°C° 0 mm 2 mps 689 mmHg 50%
    04:00 +20°C° 0.1 mm 2 mps 689 mmHg 53%
    05:00 +21°C° 0.1 mm 1 mps 689 mmHg 56%
    06:00 +22°C° 0.1 mm 1 mps 690 mmHg 58%
    07:00 +23°C° 0.2 mm 1 mps 690 mmHg 54%
    08:00 +25°C° 0.2 mm 2 mps 690 mmHg 49%
    09:00 +26°C° 0.2 mm 2 mps 690 mmHg 45%
    10:00 +27°C° 0 mm 2 mps 690 mmHg 44%
    11:00 +27°C° 0 mm 3 mps 690 mmHg 43%
    12:00 +28°C° 0 mm 3 mps 690 mmHg 43%
    13:00 +29°C° 0 mm 3 mps 690 mmHg 43%
    14:00 +29°C° 0 mm 3 mps 690 mmHg 43%
    15:00 +29°C° 0 mm 3 mps 689 mmHg 44%
    16:00 +28°C° 0 mm 3 mps 690 mmHg 47%
    17:00 +28°C° 0 mm 3 mps 690 mmHg 51%
    18:00 +27°C° 0 mm 3 mps 690 mmHg 55%
    19:00 +26°C° 0 mm 2 mps 690 mmHg 58%
    20:00 +24°C° 0 mm 2 mps 690 mmHg 60%
    21:00 +23°C° 0 mm 2 mps 691 mmHg 62%
    22:00 +21°C° 0 mm 2 mps 691 mmHg 62%
    23:00 +21°C° 0 mm 2 mps 691 mmHg 62%

    22 June, Saturday

    Time Temperature Precipitation Wind Pressure Humidity
    00:00 +21°C° 0 mm 2 mps 691 mmHg 62%
    01:00 +21°C° 0 mm 2 mps 690 mmHg 62%
    02:00 +20°C° 0 mm 2 mps 690 mmHg 62%
    03:00 +20°C° 0 mm 2 mps 690 mmHg 62%
    04:00 +21°C° 0 mm 2 mps 690 mmHg 62%
    05:00 +22°C° 0 mm 1 mps 691 mmHg 62%
    06:00 +23°C° 0 mm 1 mps 691 mmHg 62%
    07:00 +25°C° 0 mm 1 mps 692 mmHg 56%
    08:00 +26°C° 0 mm 2 mps 692 mmHg 49%
    09:00 +28°C° 0 mm 2 mps 692 mmHg 43%
    10:00 +29°C° 0 mm 2 mps 692 mmHg 42%
    11:00 +29°C° 0 mm 2 mps 692 mmHg 41%
    12:00 +30°C° 0 mm 3 mps 692 mmHg 41%
    13:00 +30°C° 0 mm 3 mps 692 mmHg 41%
    14:00 +31°C° 0 mm 3 mps 691 mmHg 41%
    15:00 +31°C° 0 mm 3 mps 691 mmHg 41%
    16:00 +30°C° 0 mm 3 mps 691 mmHg 44%
    17:00 +29°C° 0 mm 3 mps 691 mmHg 48%
    18:00 +29°C° 0 mm 2 mps 691 mmHg 51%
    19:00 +27°C° 0 mm 2 mps 691 mmHg 54%
    20:00 +25°C° 0 mm 2 mps 691 mmHg 57%
    21:00 +23°C° 0 mm 1 mps 692 mmHg 60%
    22:00 +23°C° 0 mm 1 mps 692 mmHg 60%
    23:00 +23°C° 0 mm 2 mps 691 mmHg 61%

    23 June, Sunday

    Time Temperature Precipitation Wind Pressure Humidity
    00:00 +21°C° 0 mm 2 mps 691 mmHg 61%
    01:00 +21°C° 0 mm 2 mps 691 mmHg 61%
    02:00 +21°C° 0 mm 2 mps 691 mmHg 60%
    03:00 +21°C° 0 mm 2 mps 691 mmHg 60%
    04:00 +23°C° 0 mm 2 mps 692 mmHg 60%
    05:00 +23°C° 0 mm 1 mps 692 mmHg 61%
    06:00 +24°C° 0 mm 1 mps 692 mmHg 61%
    07:00 +26°C° 0 mm 1 mps 692 mmHg 55%
    08:00 +27°C° 0 mm 1 mps 692 mmHg 49%
    09:00 +29°C° 0 mm 1 mps 693 mmHg 43%
    10:00 +30°C° 0 mm 2 mps 693 mmHg 42%
    11:00 +30°C° 0 mm 2 mps 692 mmHg 41%
    12:00 +31°C° 0 mm 2 mps 692 mmHg 40%
    13:00 +31°C° 0 mm 2 mps 692 mmHg 40%
    14:00 +32°C° 0 mm 2 mps 692 mmHg 39%
    15:00 +33°C° 0 mm 3 mps 691 mmHg 39%
    16:00 +32°C° 0 mm 2 mps 691 mmHg 42%
    17:00 +31°C° 0 mm 2 mps 691 mmHg 45%
    18:00 +30°C° 0 mm 2 mps 691 mmHg 48%
    19:00 +28°C° 0 mm 2 mps 691 mmHg 51%
    20:00 +26°C° 0 mm 2 mps 691 mmHg 53%
    21:00 +25°C° 0 mm 2 mps 691 mmHg 56%
    22:00 +24°C° 0 mm 2 mps 691 mmHg 56%
    23:00 +24°C° 0 mm 2 mps 691 mmHg 57%

    24 June, Monday

    Time Temperature Precipitation Wind Pressure Humidity
    00:00 +24°C° 0 mm 2 mps 691 mmHg 57%
    01:00 +23°C° 0 mm 2 mps 691 mmHg 57%
    02:00 +23°C° 0 mm 2 mps 691 mmHg 57%
    03:00 +23°C° 0 mm 2 mps 691 mmHg 58%
    04:00 +24°C° 0 mm 2 mps 691 mmHg 59%
    05:00 +24°C° 0 mm 1 mps 692 mmHg 60%
    06:00 +25°C° 0 mm 1 mps 692 mmHg 60%
    07:00 +27°C° 0 mm 1 mps 692 mmHg 54%
    08:00 +28°C° 0 mm 2 mps 692 mmHg 48%
    09:00 +30°C° 0 mm 2 mps 692 mmHg 42%
    10:00 +30°C° 0 mm 2 mps 692 mmHg 41%
    11:00 +31°C° 0 mm 2 mps 692 mmHg 39%
    12:00 +32°C° 0 mm 2 mps 692 mmHg 37%
    13:00 +33°C° 0 mm 3 mps 691 mmHg 37%
    14:00 +34°C° 0 mm 3 mps 691 mmHg 37%
    15:00 +34°C° 0 mm 3 mps 691 mmHg 37%
    16:00 +33°C° 0.1 mm 3 mps 691 mmHg 40%
    17:00 +31°C° 0.1 mm 2 mps 691 mmHg 44%
    18:00 +31°C° 0.1 mm 2 mps 690 mmHg 47%
    19:00 +29°C° 0 mm 2 mps 691 mmHg 50%
    20:00 +27°C° 0 mm 2 mps 691 mmHg 52%
    21:00 +25°C° 0 mm 1 mps 691 mmHg 55%
    22:00 +25°C° 0 mm 1 mps 691 mmHg 56%
    23:00 +24°C° 0 mm 1 mps 691 mmHg 57%
    Show more